[[{"header":{"parameterUnit":"m.s-1","parameterCategory":1,"la1":30.2991,"la2":30.254,"lo1":-89.0895,"lo2":-89.0444,"dy":0.0017,"dx":0.0017,"nx":28,"ny":28,"refTime":"2025-05-23T21:00:00:Z","depth":0,"parameterNumber":2,"parameterNumberName":"U-component_of_WINDS"},"data":[0,0,0,0,0,0,0,0,0,0,0,0,0,0,0,0,0,0,0,0,0,0,0,0,0,0,0,0,0,0,0,0,0,0,0,0,0,0,0,0,0,0,0,0,0,0,0,0,0,0,0,0,0,0,0,0,0,0,0.6047,0.6047,0,0.6073,0.6073,0.6073,0.6042,0.6041,0.6039,0.6038,0.6069,0.6071,0.6073,0,0,0,0,0,0,0,0,0,0,0,0,0,0.5974,0.5975,0.6047,0.6047,0.6048,0.6073,0.6073,0.6073,0.6042,0.604,0.6039,0.6038,0.6068,0.6071,0.6073,0,0,0,0,0,0,0,0,0,0,0,0,0,0.6003,0.5976,0.6047,0.6035,0.6034,0.6073,0.6073,0.6073,0.6042,0.604,0.6039,0.6037,0.6068,0.607,0.6073,0.6126,0,0,0.6082,0.6083,0,0,0,0,0,0,0,0,0.6001,0.6006,0.6036,0.6036,0.6035,0.6052,0.6058,0.6091,0.6043,0.6039,0.6038,0.6036,0.6065,0.6068,0.6077,0.6128,0.6129,0.6082,0.6084,0.6085,0.6086,0,0,0,0,0,0,0,0.5999,0.6005,0.6057,0.6037,0.6036,0.6029,0.6031,0.6064,0.6062,0.6039,0.6037,0.604,0.6064,0.6074,0.6077,0.6129,0.6082,0.6085,0.6086,0.6088,0.6223,0.6225,0,0,0,0,0,0,0.5998,0.6003,0.6057,0.6058,0.6013,0.6032,0.6034,0.6048,0.6061,0.6062,0.6042,0.6039,0.607,0.6074,0.6078,0.614,0.6085,0.6088,0.6089,0.6221,0.6223,0.6225,0,0,0,0,0,0,0.5997,0.6003,0.6056,0.603,0.6036,0.6035,0.6051,0.605,0.606,0.6063,0.6063,0.6052,0.6069,0.6074,0.6114,0.614,0.6089,0.6092,0.6219,0.6222,0.6224,0.6264,0,0,0,0,0,0,0.5995,0.6003,0.6023,0.6031,0.6037,0.609,0.6053,0.6052,0.6064,0.606,0.6073,0.6073,0.6068,0.611,0.6117,0.6143,0.6094,0.6216,0.622,0.6223,0.626,0.6268,0.6274,0,0,0,0,0,0.5992,0.6034,0.6024,0.6031,0.6062,0.6091,0.6095,0.6087,0.6066,0.6086,0.6088,0.6073,0.6136,0.6114,0.6121,0.615,0.6215,0.6219,0.6223,0.6257,0.6266,0.6274,0,0,0,0,0,0,0.6032,0.6035,0.6024,0.6069,0.608,0.6086,0.6111,0.6098,0.6116,0.6112,0.6102,0.6105,0.6147,0.6152,0.6127,0.6201,0.6172,0.6178,0.6195,0.6204,0.6211,0.6209,0.6096,0,0,0,0,0,0.6045,0.6068,0.607,0.611,0.6116,0.6113,0.6125,0.6118,0.6129,0.6134,0.6139,0.6152,0.6174,0.619,0.6211,0.6261,0.6263,0.6284,0.6291,0.6296,0.6302,0.6327,0.6336,0.6239,0.6239,0.6239,0,0,0.6074,0.6079,0.6094,0.6118,0.6126,0.615,0.6117,0.6144,0.6162,0.6139,0.6175,0.6179,0.6193,0.6237,0.6257,0.6243,0.6329,0.6302,0.6306,0.6309,0.6332,0.6341,0.635,0.6242,0.6241,0.6241,0,0,0.6139,0.6145,0.6178,0.6186,0.6197,0.6194,0.6202,0.6209,0.621,0.6247,0.6229,0.6251,0.629,0.63,0.631,0.6376,0.6363,0.6384,0.642,0.6445,0.6453,0.6459,0.6482,0.649,0.6389,0.6389,0.6389,0,0.6174,0.6209,0.6198,0.6225,0.6236,0.6214,0.6247,0.6255,0.6273,0.6282,0.6265,0.6312,0.632,0.6366,0.6382,0.6391,0.64,0.6382,0.6452,0.6459,0.6465,0.6487,0.6495,0.6392,0.6391,0.6391,0.6391,0,0.6251,0.6275,0.6301,0.6316,0.633,0.636,0.6354,0.6369,0.636,0.6359,0.6396,0.6404,0.6425,0.6436,0.6428,0.648,0.647,0.6454,0.6425,0.6477,0.6497,0.6505,0.6395,0.6394,0.6393,0.6393,0,0,0.6343,0.6349,0.6359,0.6365,0.6374,0.6393,0.6423,0.6442,0.6454,0.6467,0.6492,0.6524,0.6508,0.6519,0.6513,0.6535,0.6585,0.6515,0.6515,0.6527,0.6641,0.6653,0.6663,0.6576,0.6577,0.6578,0.664,0,0.6406,0.6455,0.6445,0.6493,0.6515,0.6493,0.6519,0.6528,0.6527,0.6546,0.6546,0.6569,0.6546,0.6552,0.6573,0.6574,0.6608,0.657,0.6598,0.6599,0.6595,0.6674,0.6687,0.6745,0.6647,0.6649,0.665,0,0.6488,0.6501,0.6551,0.6555,0.6564,0.6587,0.6602,0.6621,0.663,0.6628,0.664,0.6628,0.6658,0.6628,0.6669,0.6643,0.6654,0.6656,0.6658,0.666,0.6628,0.6677,0.6763,0.6771,0.6662,0.6661,0.666,0,0.6548,0.6579,0.6612,0.6618,0.6624,0.664,0.6644,0.6651,0.6663,0.6677,0.6684,0.6703,0.6713,0.6727,0.6721,0.67,0.6762,0.6732,0.6761,0.6761,0.6775,0.6774,0.6863,0.6784,0.6783,0.6783,0.6783,0,0.662,0.6651,0.6638,0.6659,0.6693,0.6681,0.6716,0.6717,0.6723,0.6744,0.6727,0.6747,0.6738,0.6757,0.6753,0.6786,0.6791,0.679,0.6789,0.6791,0.6791,0.6798,0.6794,0.6786,0.6785,0.6785,0.6784,0,0.6693,0.6686,0.672,0.6722,0.6723,0.6748,0.675,0.677,0.6767,0.6793,0.6799,0.6796,0.6817,0.6812,0.6837,0.6834,0.6875,0.6869,0.6872,0.687,0.6898,0.6895,0.6994,0.7006,0.692,0.6921,0.6921,0,0.6739,0.6762,0.6766,0.6777,0.6781,0.6801,0.6812,0.6801,0.6813,0.6824,0.6842,0.6862,0.6877,0.6913,0.6913,0.6932,0.6925,0.6959,0.6928,0.693,0.6925,0.6923,0.6925,0.6965,0.6966,0.6967,0.6967,0,0.6821,0.6816,0.6831,0.6845,0.6858,0.687,0.6879,0.689,0.688,0.6894,0.6915,0.6927,0.695,0.697,0.6987,0.6991,0.6978,0.6977,0.6984,0.6987,0.6987,0.6986,0.6887,0.6975,0.6974,0.6973,0.6973,0.6973,0.6881,0.69,0.6905,0.6922,0.6928,0.6937,0.6954,0.6953,0.6969,0.6986,0.6979,0.7003,0.7011,0.7031,0.7038,0.7057,0.7044,0.7055,0.7058,0.7061,0.7064,0.6984,0.706,0.706,0.706,0.7059,0.7059,0,0.6961,0.6963,0.6979,0.6992,0.7005,0.6989,0.6999,0.7012,0.7032,0.704,0.7054,0.7078,0.7097,0.7098,0.7115,0.713,0.7124,0.7135,0.7134,0.7135,0.7074,0.7066,0.7139,0.7139,0.7139,0.7139,0.7139,0.7139,0.7005,0.7035,0.703,0.7063,0.7064,0.7086,0.7092,0.7101,0.7106,0.7133,0.7147,0.7147,0.7152,0.7169,0.7186,0.7186,0.7193,0.7206,0.7203,0.7147,0.7139,0.7131,0.7123,0.7208,0.7208,0.7262,0.7262,0.7262]},{"header":{"parameterUnit":"m.s-1","parameterCategory":1,"la1":30.2991,"la2":30.254,"lo1":-89.0895,"lo2":-89.0444,"dy":0.0017,"dx":0.0017,"nx":28,"ny":28,"refTime":"2025-05-23T21:00:00:Z","depth":0,"parameterNumber":3,"parameterNumberName":"V-component_of_WINDS"},"data":[0,0,0,0,0,0,0,0,0,0,0,0,0,0,0,0,0,0,0,0,0,0,0,0,0,0,0,0,0,0,0,0,0,0,0,0,0,0,0,0,0,0,0,0,0,0,0,0,0,0,0,0,0,0,0,0,0,0,4.7949,4.7951,0,4.8052,4.8053,4.8054,4.8022,4.802,4.8018,4.8016,4.8114,4.8119,4.8123,0,0,0,0,0,0,0,0,0,0,0,0,0,4.7719,4.7723,4.7949,4.7951,4.7952,4.8052,4.8053,4.8055,4.8022,4.802,4.8017,4.8015,4.8113,4.8118,4.8124,0,0,0,0,0,0,0,0,0,0,0,0,0,4.782,4.7725,4.7949,4.7948,4.7949,4.8052,4.8053,4.8055,4.8023,4.802,4.8017,4.8014,4.8111,4.8118,4.8124,4.8232,0,0,4.8146,4.8149,0,0,0,0,0,0,0,0,4.7814,4.7828,4.7947,4.7948,4.795,4.8021,4.8008,4.8114,4.8024,4.7995,4.8016,4.8012,4.8085,4.8094,4.812,4.8237,4.8241,4.8146,4.815,4.8153,4.8155,0,0,0,0,0,0,0,4.7807,4.7824,4.799,4.7949,4.795,4.794,4.7951,4.8028,4.8057,4.7997,4.7995,4.8008,4.8085,4.8114,4.8122,4.8242,4.8146,4.8152,4.8157,4.8159,4.8452,4.8455,0,0,0,0,0,0,4.78,4.7818,4.7986,4.7993,4.7873,4.7947,4.7959,4.8001,4.8056,4.8061,4.8011,4.8006,4.8103,4.8114,4.8126,4.8256,4.8153,4.816,4.8164,4.8448,4.8453,4.8456,0,0,0,0,0,0,4.7795,4.7816,4.7982,4.7905,4.7926,4.7955,4.8002,4.8005,4.8033,4.8066,4.807,4.8035,4.8101,4.8116,4.8206,4.8259,4.8163,4.8169,4.8444,4.845,4.8455,4.8516,0,0,0,0,0,0,4.7789,4.7814,4.7857,4.7906,4.793,4.8064,4.8005,4.8009,4.8046,4.8041,4.809,4.8095,4.81,4.8196,4.8213,4.8266,4.8175,4.8439,4.8446,4.8453,4.851,4.8523,4.8535,0,0,0,0,0,4.7781,4.7869,4.7859,4.788,4.7984,4.8067,4.808,4.8086,4.8051,4.8093,4.8114,4.8093,4.825,4.8206,4.8225,4.8281,4.8436,4.8444,4.8452,4.8504,4.852,4.8534,0,0,0,0,0,0,4.7822,4.7875,4.7865,4.7972,4.8016,4.8061,4.8115,4.8103,4.8155,4.8148,4.8151,4.8162,4.8255,4.8277,4.8226,4.8388,4.8338,4.835,4.837,4.8386,4.8398,4.8391,4.8181,0,0,0,0,0,4.7844,4.7909,4.7951,4.8041,4.8063,4.8085,4.8121,4.8122,4.8166,4.8184,4.8211,4.8253,4.8311,4.835,4.8405,4.8512,4.8522,4.856,4.8572,4.8583,4.8593,4.8651,4.8668,4.8483,4.8483,4.8483,0,0,4.7889,4.7926,4.7966,4.805,4.8084,4.8149,4.8101,4.8171,4.8219,4.8194,4.8282,4.8303,4.8349,4.8449,4.8494,4.847,4.8646,4.8593,4.8601,4.8606,4.8661,4.8679,4.8694,4.8489,4.8488,4.8487,0,0,4.8005,4.804,4.8119,4.8154,4.8207,4.8221,4.824,4.8288,4.8302,4.8391,4.8373,4.8428,4.8529,4.8564,4.8594,4.8723,4.8706,4.8741,4.8806,4.8862,4.8877,4.889,4.8936,4.8952,4.8751,4.8751,4.8751,0,4.8054,4.8154,4.8161,4.8234,4.827,4.8253,4.8332,4.8365,4.8432,4.8456,4.8429,4.8556,4.8586,4.8693,4.8724,4.875,4.877,4.8735,4.8874,4.8887,4.89,4.8943,4.8961,4.8755,4.8755,4.8754,4.8754,0,4.8211,4.828,4.8337,4.8406,4.8448,4.8524,4.854,4.8583,4.858,4.8596,4.8686,4.8722,4.8785,4.881,4.8807,4.8916,4.89,4.8874,4.8823,4.8921,4.8962,4.8979,4.8761,4.8759,4.8758,4.8757,0,0,4.8356,4.8428,4.8448,4.8479,4.8536,4.8588,4.8662,4.8726,4.8762,4.8808,4.8869,4.8956,4.8932,4.8967,4.8967,4.9017,4.9116,4.8984,4.8985,4.9007,4.9239,4.9259,4.9278,4.9105,4.9109,4.9111,4.9235,0,4.8476,4.861,4.8618,4.8737,4.8801,4.8785,4.8849,4.889,4.8907,4.8961,4.8979,4.9041,4.9005,4.9026,4.9074,4.9094,4.9163,4.9085,4.9161,4.9164,4.915,4.93,4.9321,4.9436,4.9251,4.9254,4.9256,0,4.8635,4.869,4.8816,4.8864,4.8891,4.8949,4.9008,4.9061,4.9106,4.9115,4.9154,4.9148,4.9222,4.9169,4.927,4.9217,4.9248,4.9263,4.9268,4.9275,4.9216,4.9311,4.9473,4.9491,4.9281,4.9279,4.9278,0,4.8728,4.8832,4.8922,4.8948,4.9007,4.9048,4.9073,4.9116,4.9153,4.9204,4.9228,4.9286,4.9318,4.9362,4.937,4.9331,4.9471,4.942,4.948,4.948,4.951,4.9508,4.968,4.953,4.953,4.9529,4.9529,0,4.8862,4.894,4.8965,4.902,4.9106,4.9114,4.9198,4.9221,4.9259,4.9316,4.9305,4.9359,4.9367,4.9422,4.9429,4.9511,4.9525,4.9534,4.9535,4.9535,4.9534,4.9556,4.9548,4.9534,4.9533,4.9532,4.9531,0,4.8981,4.9001,4.9097,4.9145,4.9159,4.922,4.926,4.9312,4.9328,4.9401,4.9418,4.9443,4.9507,4.9521,4.9596,4.9601,4.9699,4.9692,4.9685,4.9684,4.9744,4.9738,4.9935,4.9961,4.9794,4.9796,4.9797,0,4.9065,4.9126,4.918,4.922,4.9248,4.9311,4.935,4.9359,4.94,4.9456,4.9501,4.9565,4.9616,4.9719,4.9743,4.98,4.9794,4.9859,4.9803,4.9801,4.9795,4.9792,4.9798,4.987,4.9872,4.9873,4.9875,0,4.9213,4.922,4.9278,4.934,4.9388,4.9437,4.9482,4.9514,4.953,4.9576,4.9643,4.9683,4.9761,4.9824,4.9882,4.9906,4.9893,4.9892,4.9909,4.991,4.9904,4.9909,4.9715,4.9888,4.9886,4.9885,4.9885,4.9884,4.9317,4.937,4.9418,4.9483,4.9519,4.9562,4.9614,4.9637,4.9694,4.976,4.9761,4.9835,4.9877,4.9954,4.9982,5.0037,5.0017,5.0041,5.0047,5.0054,5.0059,4.9895,5.0048,5.0047,5.0047,5.0047,5.0046,0,4.9465,4.9495,4.9555,4.9621,4.9672,4.9657,4.9707,4.975,4.9816,4.9858,4.9909,4.9986,5.0047,5.0076,5.0135,5.0175,5.017,5.019,5.0187,5.0193,5.0074,5.0054,5.0193,5.0193,5.0193,5.0193,5.0193,5.0193,4.9548,4.9636,4.9649,4.9755,4.9783,4.9857,4.9887,4.9926,4.996,5.0047,5.0099,5.0118,5.0154,5.0217,5.0272,5.0278,5.0301,5.0324,5.0328,5.0216,5.0201,5.0187,5.0168,5.0329,5.0329,5.0442,5.0443,5.0444]}]]